Voltar ao catálogo

PEGASUS DEB

AtivoPO
NORAD 23986·DEBRIS·🇺🇸 United States

Lançado May 19, 1994 de Vandenberg Space Force Base

Loading…

Próximas Passagens (próximas 24 horas)

TLE

AtualizadoSource: Space-Track

Época: Sep 13, 2026, 09:22 UTC

1 23986U 94029AG  26256.39056022  .00020847  00000-0  42103-3 0  9994
2 23986  82.0337 241.2544 0023697 202.6687 157.3517 15.46044254644382

Acompanhe PEGASUS DEB em tempo real com AllMySat

Download on the App Store